ZQ-3 R/B

Last updated on Mon Dec 15 2025 00:02:12 GMT+0000 (Coordinated Universal Time)

1 66877U 25282A 25348.32036440 .01191657 75348-5 23302-3 0 9992 2 66877 56.9520 51.6111 0765119 222.6896 131.2199 14.62852731 1626
UTC large
Height (km)
Speed (km/s)
/
Latitude / Longitude
Inclination (degrees)
Orbital Period (minutes)
Azimuth
Elevation
Range (km)
Doppler Factor

Next 0 passes for location: London (51.5072 / 0.1276)

Sorry there are no passes over London.